START_TIME,STEP,MOV.,M35,t_acc.,PL05,t_acc.,PL06,t_acc.,PL07,t_acc.
1979-07-27 00:00:23.200 ,0,0,0.,4.8,1.,4.8,1.,4.8,1.,4.8
1979-07-27 00:00:28.000 ,0,0,0.,4.8,5.,4.8,1.,4.8,0.,4.8
1979-07-27 00:00:32.800 ,0,0,0.,4.8,9.,4.8,1.,4.8,0.,4.8
1979-07-27 00:00:37.600 ,0,0,0.,4.8,4.,4.8,3.,4.8,1.,4.8
1979-07-27 00:00:42.400 ,0,0,0.,4.8,7.,4.8,1.,4.8,0.,4.8
1979-07-27 00:00:47.200 ,1,0,0.,4.8,2.,4.8,0.,4.8,0.,4.8
1979-07-27 00:00:52.000 ,1,0,0.,4.8,4.,4.8,1.,4.8,1.,4.8
1979-07-27 00:00:56.800 ,1,0,0.,4.8,4.,4.8,0.,4.8,0.,4.8
1979-07-27 00:01:01.600 ,1,0,0.,4.8,4.,4.8,0.,4.8,0.,4.8
1979-07-27 00:01:06.400 ,1,0,0.,4.8,4.,4.8,0.,4.8,0.,4.8
1979-07-27 00:01:11.200 ,1,0,0.,4.8,2.,4.8,1.,4.8,1.,4.8
1979-07-27 00:01:16.000 ,1,0,0.,4.8,3.,4.8,1.,4.8,0.,4.8
1979-07-27 00:01:20.800 ,1,0,0.,4.8,0.,4.8,1.,4.8,0.,4.8
1979-07-27 00:01:25.600 ,1,0,0.,4.8,4.,4.8,0.,4.8,0.,4.8
1979-07-27 00:01:30.400 ,1,0,0.,4.8,1.,4.8,0.,4.8,0.,4.8
1979-07-27 00:01:35.200 ,2,0,0.,4.8,1.,4.8,0.,4.8,0.,4.8
1979-07-27 00:01:40.000 ,2,0,0.,4.8,2.,4.8,3.,4.8,0.,4.8
1979-07-27 00:01:44.800 ,2,0,0.,4.8,1.,4.8,0.,4.8,0.,4.8
1979-07-27 00:01:49.600 ,2,0,0.,4.8,2.,4.8,1.,4.8,0.,4.8
1979-07-27 00:01:54.400 ,2,0,0.,4.8,1.,4.8,0.,4.8,0.,4.8
1979-07-27 00:01:59.200 ,2,0,0.,4.8,2.,4.8,0.,4.8,0.,4.8
1979-07-27 00:02:04.000 ,2,0,0.,4.8,0.,4.8,1.,4.8,0.,4.8
1979-07-27 00:02:08.800 ,2,0,0.,4.8,1.,4.8,0.,4.8,0.,4.8
1979-07-27 00:02:13.600 ,2,0,0.,4.8,4.,4.8,0.,4.8,0.,4.8
1979-07-27 00:02:18.400 ,2,0,0.,4.8,3.,4.8,1.,4.8,0.,4.8
1979-07-27 00:02:23.200 ,3,0,0.,4.8,1.,4.8,0.,4.8,1.,4.8
1979-07-27 00:02:28.000 ,3,0,0.,4.8,1.,4.8,0.,4.8,0.,4.8
1979-07-27 00:02:32.800 ,3,0,0.,4.8,2.,4.8,1.,4.8,0.,4.8
1979-07-27 00:02:37.600 ,3,0,0.,4.8,4.,4.8,2.,4.8,1.,4.8
1979-07-27 00:02:42.400 ,3,0,0.,4.8,0.,4.8,0.,4.8,0.,4.8
1979-07-27 00:02:47.200 ,3,0,0.,4.8,1.,4.8,0.,4.8,1.,4.8
1979-07-27 00:02:52.000 ,3,0,0.,4.8,1.,4.8,0.,4.8,0.,4.8
1979-07-27 00:02:56.800 ,3,0,0.,4.8,2.,4.8,0.,4.8,0.,4.8
1979-07-27 00:03:01.600 ,3,0,0.,4.8,1.,4.8,2.,4.8,0.,4.8
1979-07-27 00:03:06.400 ,3,0,0.,4.8,5.,4.8,0.,4.8,1.,4.8
1979-07-27 00:03:11.200 ,4,0,0.,4.8,6.,4.8,0.,4.8,0.,4.8
1979-07-27 00:03:16.000 ,4,0,0.,4.8,1.,4.8,0.,4.8,0.,4.8
1979-07-27 00:03:20.800 ,4,0,0.,4.8,5.,4.8,0.,4.8,1.,4.8
1979-07-27 00:03:25.600 ,4,0,0.,4.8,7.,4.8,0.,4.8,0.,4.8
1979-07-27 00:03:30.400 ,4,0,0.,4.8,6.,4.8,1.,4.8,1.,4.8
1979-07-27 00:03:35.200 ,4,0,0.,4.8,8.,4.8,0.,4.8,0.,4.8
1979-07-27 00:03:40.000 ,4,0,0.,4.8,9.,4.8,0.,4.8,0.,4.8
1979-07-27 00:03:44.800 ,4,0,0.,4.8,3.,4.8,1.,4.8,1.,4.8
1979-07-27 00:03:49.600 ,4,0,0.,4.8,6.,4.8,2.,4.8,0.,4.8
1979-07-27 00:03:54.400 ,4,0,0.,4.8,6.,4.8,1.,4.8,0.,4.8
1979-07-27 00:03:59.200 ,5,0,0.,4.8,6.,4.8,2.,4.8,1.,4.8
1979-07-27 00:04:04.000 ,5,0,0.,4.8,6.,4.8,1.,4.8,0.,4.8
1979-07-27 00:04:08.800 ,5,0,0.,4.8,9.,4.8,1.,4.8,2.,4.8
1979-07-27 00:04:13.600 ,5,0,0.,4.8,13.,4.8,0.,4.8,1.,4.8
1979-07-27 00:04:18.400 ,5,0,0.,4.8,6.,4.8,1.,4.8,0.,4.8
1979-07-27 00:04:23.200 ,5,0,0.,4.8,13.,4.8,3.,4.8,0.,4.8
1979-07-27 00:04:28.000 ,5,0,0.,4.8,10.,4.8,1.,4.8,0.,4.8
1979-07-27 00:04:32.800 ,5,0,0.,4.8,7.,4.8,0.,4.8,0.,4.8
1979-07-27 00:04:37.600 ,5,0,0.,4.8,9.,4.8,0.,4.8,0.,4.8
1979-07-27 00:04:42.400 ,5,0,0.,4.8,14.,4.8,3.,4.8,0.,4.8
1979-07-27 00:04:47.200 ,6,0,0.,4.8,10.,4.8,2.,4.8,0.,4.8
1979-07-27 00:04:52.000 ,6,0,0.,4.8,11.,4.8,0.,4.8,1.,4.8
1979-07-27 00:04:56.800 ,6,0,0.,4.8,11.,4.8,0.,4.8,1.,4.8
1979-07-27 00:05:01.600 ,6,0,0.,4.8,9.,4.8,2.,4.8,0.,4.8
1979-07-27 00:05:06.400 ,6,0,0.,4.8,8.,4.8,0.,4.8,0.,4.8
1979-07-27 00:05:11.200 ,6,0,0.,4.8,5.,4.8,0.,4.8,0.,4.8
1979-07-27 00:05:16.000 ,6,0,0.,4.8,7.,4.8,1.,4.8,0.,4.8
1979-07-27 00:05:20.800 ,6,0,0.,4.8,6.,4.8,1.,4.8,0.,4.8
1979-07-27 00:05:25.600 ,6,0,0.,4.8,6.,4.8,2.,4.8,1.,4.8
1979-07-27 00:05:30.400 ,6,0,0.,4.8,11.,4.8,0.,4.8,0.,4.8
1979-07-27 00:05:35.200 ,7,0,0.,4.8,4.,4.8,1.,4.8,0.,4.8
1979-07-27 00:05:40.000 ,7,0,0.,4.8,5.,4.8,0.,4.8,0.,4.8
1979-07-27 00:05:44.800 ,7,0,0.,4.8,0.,4.8,0.,4.8,0.,4.8
1979-07-27 00:05:49.600 ,7,0,0.,4.8,1.,4.8,0.,4.8,0.,4.8
1979-07-27 00:05:54.400 ,7,0,0.,4.8,0.,4.8,0.,4.8,0.,4.8
1979-07-27 00:05:59.200 ,7,0,0.,4.8,1.,4.8,1.,4.8,0.,4.8
1979-07-27 00:06:04.000 ,7,0,0.,4.8,2.,4.8,0.,4.8,0.,4.8
1979-07-27 00:06:08.800 ,7,0,0.,4.8,0.,4.8,1.,4.8,0.,4.8
1979-07-27 00:06:13.600 ,7,0,0.,4.8,0.,4.8,0.,4.8,0.,4.8
1979-07-27 00:06:18.400 ,7,0,0.,4.8,0.,4.8,0.,4.8,0.,4.8
1979-07-27 00:06:23.200 ,7,0,0.,4.8,0.,4.8,1.,4.8,0.,4.8
1979-07-27 00:06:28.000 ,7,0,0.,4.8,1.,4.8,0.,4.8,0.,4.8
1979-07-27 00:06:32.800 ,7,0,0.,4.8,1.,4.8,0.,4.8,0.,4.8
1979-07-27 00:06:37.600 ,7,0,0.,4.8,1.,4.8,0.,4.8,0.,4.8
1979-07-27 00:06:42.400 ,7,0,0.,4.8,0.,4.8,0.,4.8,0.,4.8
1979-07-27 00:06:47.200 ,7,0,0.,4.8,0.,4.8,0.,4.8,0.,4.8
1979-07-27 00:06:52.000 ,7,0,0.,4.8,1.,4.8,0.,4.8,0.,4.8
1979-07-27 00:06:56.800 ,7,0,0.,4.8,1.,4.8,0.,4.8,0.,4.8
1979-07-27 00:07:01.600 ,7,0,0.,4.8,0.,4.8,0.,4.8,0.,4.8
1979-07-27 00:07:06.400 ,7,0,0.,4.8,1.,4.8,0.,4.8,0.,4.8
1979-07-27 00:07:11.200 ,6,0,0.,4.8,0.,4.8,0.,4.8,0.,4.8
1979-07-27 00:07:16.000 ,6,0,0.,4.8,1.,4.8,0.,4.8,0.,4.8
1979-07-27 00:07:20.800 ,6,0,0.,4.8,8.,4.8,1.,4.8,1.,4.8
1979-07-27 00:07:25.600 ,6,0,0.,4.8,2.,4.8,2.,4.8,0.,4.8
1979-07-27 00:07:30.400 ,6,0,0.,4.8,9.,4.8,3.,4.8,2.,4.8
1979-07-27 00:07:35.200 ,6,0,0.,4.8,13.,4.8,0.,4.8,0.,4.8
1979-07-27 00:07:40.000 ,6,0,0.,4.8,5.,4.8,0.,4.8,0.,4.8
1979-07-27 00:07:44.800 ,6,0,0.,4.8,6.,4.8,1.,4.8,0.,4.8
1979-07-27 00:07:49.600 ,6,0,0.,4.8,6.,4.8,1.,4.8,1.,4.8
1979-07-27 00:07:54.400 ,6,0,0.,4.8,3.,4.8,1.,4.8,0.,4.8
1979-07-27 00:07:59.200 ,5,0,0.,4.8,7.,4.8,1.,4.8,1.,4.8
1979-07-27 00:08:04.000 ,5,0,0.,4.8,8.,4.8,0.,4.8,0.,4.8
1979-07-27 00:08:08.800 ,5,0,0.,4.8,7.,4.8,2.,4.8,0.,4.8
1979-07-27 00:08:13.600 ,5,0,0.,4.8,12.,4.8,0.,4.8,0.,4.8
1979-07-27 00:08:18.400 ,5,0,0.,4.8,5.,4.8,1.,4.8,0.,4.8
1979-07-27 00:08:23.200 ,5,0,0.,4.8,8.,4.8,1.,4.8,0.,4.8
1979-07-27 00:08:28.000 ,5,0,0.,4.8,10.,4.8,1.,4.8,1.,4.8
1979-07-27 00:08:32.800 ,5,0,0.,4.8,4.,4.8,1.,4.8,0.,4.8
1979-07-27 00:08:37.600 ,5,0,0.,4.8,8.,4.8,1.,4.8,1.,4.8
1979-07-27 00:08:42.400 ,5,0,0.,4.8,5.,4.8,0.,4.8,0.,4.8
1979-07-27 00:08:47.200 ,4,0,0.,4.8,6.,4.8,0.,4.8,0.,4.8
1979-07-27 00:08:51.990 ,4,0,0.,4.8,6.,4.8,0.,4.8,0.,4.8
1979-07-27 00:08:56.790 ,4,0,0.,4.8,3.,4.8,0.,4.8,0.,4.8
1979-07-27 00:09:01.590 ,4,0,0.,4.8,3.,4.8,1.,4.8,0.,4.8
1979-07-27 00:09:06.400 ,4,0,0.,4.8,1.,4.8,1.,4.8,0.,4.8
1979-07-27 00:09:11.200 ,4,0,0.,4.8,3.,4.8,1.,4.8,0.,4.8
1979-07-27 00:09:15.990 ,4,0,0.,4.8,4.,4.8,2.,4.8,1.,4.8
1979-07-27 00:09:20.790 ,4,0,0.,4.8,2.,4.8,1.,4.8,0.,4.8
1979-07-27 00:09:25.590 ,4,0,0.,4.8,7.,4.8,1.,4.8,0.,4.8
1979-07-27 00:09:30.400 ,4,0,0.,4.8,2.,4.8,0.,4.8,0.,4.8
1979-07-27 00:09:35.200 ,3,0,0.,4.8,13.,4.8,4.,4.8,0.,4.8
1979-07-27 00:09:39.990 ,3,0,0.,4.8,1.,4.8,3.,4.8,1.,4.8
1979-07-27 00:09:44.790 ,3,0,0.,4.8,5.,4.8,1.,4.8,0.,4.8
1979-07-27 00:09:49.590 ,3,0,0.,4.8,4.,4.8,0.,4.8,0.,4.8
1979-07-27 00:09:54.400 ,3,0,0.,4.8,2.,4.8,2.,4.8,0.,4.8
1979-07-27 00:09:59.200 ,3,0,0.,4.8,5.,4.8,2.,4.8,1.,4.8
1979-07-27 00:10:03.990 ,3,0,0.,4.8,3.,4.8,1.,4.8,0.,4.8
1979-07-27 00:10:08.790 ,3,0,0.,4.8,3.,4.8,0.,4.8,0.,4.8
1979-07-27 00:10:13.590 ,3,0,0.,4.8,1.,4.8,0.,4.8,1.,4.8
1979-07-27 00:10:18.400 ,3,0,0.,4.8,3.,4.8,0.,4.8,2.,4.8
1979-07-27 00:10:23.200 ,2,0,0.,4.8,1.,4.8,1.,4.8,0.,4.8
1979-07-27 00:10:27.990 ,2,0,0.,4.8,0.,4.8,0.,4.8,0.,4.8
1979-07-27 00:10:32.790 ,2,0,0.,4.8,8.,4.8,0.,4.8,0.,4.8
1979-07-27 00:10:37.590 ,2,0,0.,4.8,3.,4.8,0.,4.8,0.,4.8
1979-07-27 00:10:42.400 ,2,0,0.,4.8,0.,4.8,0.,4.8,0.,4.8
1979-07-27 00:10:47.200 ,2,0,0.,4.8,4.,4.8,0.,4.8,1.,4.8
1979-07-27 00:10:51.990 ,2,0,0.,4.8,1.,4.8,0.,4.8,0.,4.8
1979-07-27 00:10:56.790 ,2,0,0.,4.8,4.,4.8,0.,4.8,0.,4.8
1979-07-27 00:11:01.590 ,2,0,0.,4.8,3.,4.8,0.,4.8,0.,4.8
1979-07-27 00:11:06.400 ,2,0,0.,4.8,3.,4.8,0.,4.8,0.,4.8
1979-07-27 00:11:11.200 ,1,0,0.,4.8,4.,4.8,0.,4.8,0.,4.8
1979-07-27 00:11:15.990 ,1,0,0.,4.8,6.,4.8,0.,4.8,0.,4.8
1979-07-27 00:11:20.790 ,1,0,0.,4.8,14.,4.8,1.,4.8,0.,4.8
1979-07-27 00:11:25.590 ,1,0,0.,4.8,15.,4.8,3.,4.8,0.,4.8
1979-07-27 00:11:30.400 ,1,0,0.,4.8,20.,4.8,3.,4.8,0.,4.8
1979-07-27 00:11:35.200 ,1,0,0.,4.8,16.,4.8,0.,4.8,0.,4.8
1979-07-27 00:11:39.990 ,1,0,0.,4.8,15.,4.8,2.,4.8,0.,4.8
1979-07-27 00:11:44.790 ,1,0,0.,4.8,21.,4.8,1.,4.8,1.,4.8
1979-07-27 00:11:49.590 ,1,0,0.,4.8,18.,4.8,0.,4.8,0.,4.8
1979-07-27 00:11:54.400 ,1,0,0.,4.8,13.,4.8,4.,4.8,2.,4.8
1979-07-27 00:11:59.200 ,0,0,0.,4.8,21.,4.8,2.,4.8,0.,4.8
1979-07-27 00:12:03.990 ,0,0,0.,4.8,19.,4.8,1.,4.8,1.,4.8
1979-07-27 00:12:08.790 ,0,0,0.,4.8,20.,4.8,1.,4.8,3.,4.8
1979-07-27 00:12:13.590 ,0,0,0.,4.8,18.,4.8,2.,4.8,1.,4.8
1979-07-27 00:12:18.400 ,0,0,0.,4.8,13.,4.8,2.,4.8,1.,4.8
1979-07-27 00:12:23.200 ,0,0,0.,4.8,15.,4.8,3.,4.8,0.,4.8
1979-07-27 00:12:27.990 ,0,0,0.,4.8,10.,4.8,3.,4.8,1.,4.8
1979-07-27 00:12:32.790 ,0,0,0.,4.8,24.,4.8,4.,4.8,1.,4.8
1979-07-27 00:12:37.590 ,0,0,1.,4.8,24.,4.8,2.,4.8,0.,4.8
1979-07-27 00:12:42.400 ,0,0,0.,4.8,18.,4.8,3.,4.8,1.,4.8
1979-07-27 00:12:47.200 ,0,0,0.,4.8,13.,4.8,1.,4.8,2.,4.8
1979-07-27 00:12:51.990 ,0,0,0.,4.8,15.,4.8,1.,4.8,0.,4.8
1979-07-27 00:12:56.790 ,0,0,0.,4.8,32.,4.8,3.,4.8,0.,4.8
1979-07-27 00:13:01.590 ,0,0,0.,4.8,17.,4.8,4.,4.8,0.,4.8
1979-07-27 00:13:06.400 ,0,0,0.,4.8,14.,4.8,3.,4.8,0.,4.8
1979-07-27 00:13:11.200 ,0,0,0.,4.8,17.,4.8,1.,4.8,3.,4.8
1979-07-27 00:13:15.990 ,0,0,0.,4.8,15.,4.8,1.,4.8,1.,4.8
1979-07-27 00:13:20.790 ,0,0,0.,4.8,21.,4.8,2.,4.8,0.,4.8
1979-07-27 00:13:25.590 ,0,0,0.,4.8,11.,4.8,4.,4.8,0.,4.8
1979-07-27 00:13:30.400 ,0,0,0.,4.8,13.,4.8,3.,4.8,3.,4.8
1979-07-27 00:13:35.200 ,1,0,0.,4.8,17.,4.8,1.,4.8,0.,4.8
1979-07-27 00:13:39.990 ,1,0,0.,4.8,20.,4.8,1.,4.8,1.,4.8
1979-07-27 00:13:44.790 ,1,0,0.,4.8,18.,4.8,1.,4.8,0.,4.8
1979-07-27 00:13:49.590 ,1,0,0.,4.8,28.,4.8,2.,4.8,0.,4.8
1979-07-27 00:13:54.400 ,1,0,0.,4.8,12.,4.8,2.,4.8,0.,4.8
1979-07-27 00:13:59.200 ,1,0,0.,4.8,11.,4.8,0.,4.8,0.,4.8
1979-07-27 00:14:03.990 ,1,0,0.,4.8,16.,4.8,2.,4.8,0.,4.8
1979-07-27 00:14:08.790 ,1,0,0.,4.8,15.,4.8,0.,4.8,0.,4.8
1979-07-27 00:14:13.590 ,1,0,0.,4.8,15.,4.8,0.,4.8,0.,4.8
1979-07-27 00:14:18.400 ,1,0,0.,4.8,24.,4.8,2.,4.8,1.,4.8
1979-07-27 00:14:23.200 ,2,0,0.,4.8,21.,4.8,1.,4.8,0.,4.8
1979-07-27 00:14:27.990 ,2,0,0.,4.8,16.,4.8,1.,4.8,1.,4.8
1979-07-27 00:14:32.790 ,2,0,0.,4.8,5.,4.8,0.,4.8,0.,4.8
1979-07-27 00:14:37.590 ,2,0,0.,4.8,9.,4.8,1.,4.8,0.,4.8
1979-07-27 00:14:42.400 ,2,0,0.,4.8,6.,4.8,1.,4.8,0.,4.8
1979-07-27 00:14:47.200 ,2,0,0.,4.8,8.,4.8,1.,4.8,0.,4.8
1979-07-27 00:14:51.990 ,2,0,0.,4.8,4.,4.8,0.,4.8,0.,4.8
1979-07-27 00:14:56.790 ,2,0,0.,4.8,6.,4.8,0.,4.8,0.,4.8
1979-07-27 00:15:01.590 ,2,0,0.,4.8,5.,4.8,1.,4.8,0.,4.8
1979-07-27 00:15:06.400 ,2,0,0.,4.8,8.,4.8,0.,4.8,0.,4.8
1979-07-27 00:15:11.200 ,3,0,0.,4.8,13.,4.8,2.,4.8,0.,4.8
1979-07-27 00:15:15.990 ,3,0,0.,4.8,9.,4.8,0.,4.8,0.,4.8
1979-07-27 00:15:20.790 ,3,0,0.,4.8,3.,4.8,0.,4.8,0.,4.8
1979-07-27 00:15:25.590 ,3,0,0.,4.8,2.,4.8,0.,4.8,0.,4.8
1979-07-27 00:15:30.400 ,3,0,0.,4.8,9.,4.8,0.,4.8,0.,4.8
1979-07-27 00:15:35.200 ,3,0,0.,4.8,6.,4.8,0.,4.8,0.,4.8
1979-07-27 00:15:39.990 ,3,0,0.,4.8,5.,4.8,0.,4.8,0.,4.8
1979-07-27 00:15:44.790 ,3,0,0.,4.8,5.,4.8,0.,4.8,0.,4.8
1979-07-27 00:15:49.590 ,3,0,0.,4.8,3.,4.8,1.,4.8,0.,4.8
1979-07-27 00:15:54.400 ,3,0,0.,4.8,5.,4.8,0.,4.8,0.,4.8
1979-07-27 00:15:59.200 ,4,0,0.,4.8,4.,4.8,1.,4.8,0.,4.8
1979-07-27 00:16:03.990 ,4,0,0.,4.8,4.,4.8,0.,4.8,0.,4.8
1979-07-27 00:16:08.790 ,4,0,0.,4.8,5.,4.8,2.,4.8,0.,4.8
1979-07-27 00:16:13.590 ,4,0,0.,4.8,6.,4.8,2.,4.8,0.,4.8
1979-07-27 00:16:18.400 ,4,0,0.,4.8,12.,4.8,1.,4.8,1.,4.8
1979-07-27 00:16:23.200 ,4,0,0.,4.8,2.,4.8,0.,4.8,1.,4.8
1979-07-27 00:16:27.990 ,4,0,0.,4.8,5.,4.8,0.,4.8,0.,4.8
1979-07-27 00:16:32.790 ,4,0,1.,4.8,4.,4.8,2.,4.8,1.,4.8
1979-07-27 00:16:37.590 ,4,0,0.,4.8,7.,4.8,0.,4.8,0.,4.8
1979-07-27 00:16:42.400 ,4,0,0.,4.8,1.,4.8,0.,4.8,0.,4.8
1979-07-27 00:16:47.200 ,5,0,0.,4.8,4.,4.8,0.,4.8,1.,4.8
1979-07-27 00:16:51.990 ,5,0,0.,4.8,4.,4.8,1.,4.8,0.,4.8
1979-07-27 00:16:56.790 ,5,0,0.,4.8,3.,4.8,2.,4.8,1.,4.8
1979-07-27 00:17:01.590 ,5,0,0.,4.8,6.,4.8,3.,4.8,0.,4.8
1979-07-27 00:17:06.400 ,5,0,0.,4.8,2.,4.8,0.,4.8,1.,4.8
1979-07-27 00:17:11.200 ,5,0,0.,4.8,10.,4.8,1.,4.8,0.,4.8
1979-07-27 00:17:15.990 ,5,0,0.,4.8,8.,4.8,1.,4.8,0.,4.8
1979-07-27 00:17:20.800 ,5,0,0.,4.8,5.,4.8,0.,4.8,0.,4.8
1979-07-27 00:17:25.600 ,5,0,0.,4.8,8.,4.8,1.,4.8,1.,4.8
1979-07-27 00:17:30.400 ,5,0,0.,4.8,8.,4.8,0.,4.8,0.,4.8
1979-07-27 00:17:35.200 ,6,0,0.,4.8,7.,4.8,1.,4.8,2.,4.8
1979-07-27 00:17:39.990 ,6,0,0.,4.8,7.,4.8,0.,4.8,0.,4.8
1979-07-27 00:17:44.800 ,6,0,0.,4.8,8.,4.8,3.,4.8,0.,4.8
1979-07-27 00:17:49.600 ,6,0,0.,4.8,9.,4.8,2.,4.8,0.,4.8
1979-07-27 00:17:54.400 ,6,0,0.,4.8,13.,4.8,2.,4.8,1.,4.8
1979-07-27 00:17:59.200 ,6,0,0.,4.8,5.,4.8,1.,4.8,0.,4.8
1979-07-27 00:18:03.990 ,6,0,0.,4.8,7.,4.8,0.,4.8,0.,4.8
1979-07-27 00:18:08.800 ,6,0,0.,4.8,8.,4.8,1.,4.8,0.,4.8
1979-07-27 00:18:13.600 ,6,0,0.,4.8,10.,4.8,0.,4.8,1.,4.8
1979-07-27 00:18:18.400 ,6,0,0.,4.8,9.,4.8,1.,4.8,0.,4.8
1979-07-27 00:18:23.200 ,7,0,0.,4.8,5.,4.8,1.,4.8,2.,4.8
1979-07-27 00:18:27.990 ,7,0,0.,4.8,7.,4.8,1.,4.8,0.,4.8
1979-07-27 00:18:32.800 ,7,0,0.,4.8,0.,4.8,0.,4.8,0.,4.8
1979-07-27 00:18:37.600 ,7,0,0.,4.8,0.,4.8,0.,4.8,0.,4.8
1979-07-27 00:18:42.400 ,7,0,0.,4.8,1.,4.8,0.,4.8,0.,4.8
1979-07-27 00:18:47.200 ,7,0,0.,4.8,0.,4.8,1.,4.8,1.,4.8
1979-07-27 00:18:51.990 ,7,0,0.,4.8,0.,4.8,1.,4.8,1.,4.8
1979-07-27 00:18:56.800 ,7,0,0.,4.8,1.,4.8,0.,4.8,0.,4.8
1979-07-27 00:19:01.600 ,7,0,0.,4.8,0.,4.8,0.,4.8,0.,4.8
1979-07-27 00:19:06.400 ,7,0,0.,4.8,0.,4.8,0.,4.8,0.,4.8
1979-07-27 00:19:11.200 ,3,1,0.,4.8,8.,4.8,1.,4.8,1.,4.8
1979-07-27 00:19:15.990 ,3,1,0.,4.8,10.,4.8,0.,4.8,0.,4.8
1979-07-27 00:19:20.800 ,3,1,0.,4.8,5.,4.8,0.,4.8,1.,4.8
1979-07-27 00:19:25.600 ,3,1,0.,4.8,5.,4.8,0.,4.8,1.,4.8
1979-07-27 00:19:30.400 ,3,1,0.,4.8,4.,4.8,1.,4.8,0.,4.8
1979-07-27 00:19:35.200 ,0,1,0.,4.8,6.,4.8,1.,4.8,1.,4.8
1979-07-27 00:19:39.990 ,0,1,0.,4.8,7.,4.8,0.,4.8,0.,4.8
1979-07-27 00:19:44.800 ,0,1,0.,4.8,14.,4.8,2.,4.8,0.,4.8
1979-07-27 00:19:49.600 ,0,1,0.,4.8,12.,4.8,0.,4.8,2.,4.8
1979-07-27 00:19:54.400 ,0,1,0.,4.8,23.,4.8,1.,4.8,0.,4.8
1979-07-27 00:19:59.200 ,4,1,0.,4.8,11.,4.8,3.,4.8,1.,4.8
1979-07-27 00:20:03.990 ,4,1,0.,4.8,19.,4.8,2.,4.8,1.,4.8
1979-07-27 00:20:08.800 ,4,1,0.,4.8,8.,4.8,1.,4.8,0.,4.8
1979-07-27 00:20:13.600 ,4,1,0.,4.8,2.,4.8,0.,4.8,0.,4.8
1979-07-27 00:20:18.400 ,4,1,0.,4.8,4.,4.8,0.,4.8,0.,4.8
1979-07-27 00:20:23.200 ,7,1,0.,4.8,2.,4.8,2.,4.8,0.,4.8
1979-07-27 00:20:27.990 ,7,1,0.,4.8,7.,4.8,2.,4.8,0.,4.8
1979-07-27 00:20:32.800 ,7,1,0.,4.8,5.,4.8,1.,4.8,0.,4.8
1979-07-27 00:20:37.600 ,7,1,0.,4.8,1.,4.8,0.,4.8,0.,4.8
1979-07-27 00:20:42.400 ,7,1,0.,4.8,1.,4.8,0.,4.8,0.,4.8
1979-07-27 00:20:47.200 ,3,1,0.,4.8,1.,4.8,0.,4.8,0.,4.8
1979-07-27 00:20:51.990 ,3,1,0.,4.8,8.,4.8,0.,4.8,1.,4.8
1979-07-27 00:20:56.800 ,3,1,0.,4.8,6.,4.8,0.,4.8,1.,4.8
1979-07-27 00:21:01.600 ,3,1,0.,4.8,4.,4.8,2.,4.8,0.,4.8
1979-07-27 00:21:06.400 ,3,1,0.,4.8,7.,4.8,0.,4.8,0.,4.8
1979-07-27 00:21:11.200 ,0,1,0.,4.8,6.,4.8,0.,4.8,0.,4.8
1979-07-27 00:21:15.990 ,0,1,0.,4.8,12.,4.8,0.,4.8,0.,4.8
1979-07-27 00:21:20.800 ,0,1,0.,4.8,18.,4.8,2.,4.8,0.,4.8
1979-07-27 00:21:25.600 ,0,1,0.,4.8,20.,4.8,0.,4.8,0.,4.8
1979-07-27 00:21:30.400 ,0,1,0.,4.8,17.,4.8,1.,4.8,0.,4.8
1979-07-27 00:21:35.200 ,4,1,0.,4.8,23.,4.8,6.,4.8,1.,4.8
1979-07-27 00:21:39.990 ,4,1,0.,4.8,13.,4.8,3.,4.8,0.,4.8
1979-07-27 00:21:44.800 ,4,1,0.,4.8,10.,4.8,0.,4.8,0.,4.8
1979-07-27 00:21:49.600 ,4,1,0.,4.8,4.,4.8,1.,4.8,0.,4.8
1979-07-27 00:21:54.400 ,4,1,0.,4.8,5.,4.8,2.,4.8,0.,4.8
1979-07-27 00:21:59.200 ,7,1,0.,4.8,6.,4.8,1.,4.8,0.,4.8
1979-07-27 00:22:03.990 ,7,1,0.,4.8,5.,4.8,0.,4.8,0.,4.8
1979-07-27 00:22:08.800 ,7,1,0.,4.8,7.,4.8,2.,4.8,0.,4.8
1979-07-27 00:22:13.600 ,7,1,0.,4.8,2.,4.8,2.,4.8,1.,4.8
1979-07-27 00:22:18.400 ,7,1,0.,4.8,2.,4.8,0.,4.8,0.,4.8
1979-07-27 00:22:23.200 ,3,1,0.,4.8,4.,4.8,0.,4.8,0.,4.8
1979-07-27 00:22:27.990 ,3,1,0.,4.8,5.,4.8,1.,4.8,0.,4.8
1979-07-27 00:22:32.800 ,3,1,0.,4.8,5.,4.8,2.,4.8,0.,4.8
1979-07-27 00:22:37.600 ,3,1,0.,4.8,2.,4.8,0.,4.8,0.,4.8
1979-07-27 00:22:42.400 ,3,1,0.,4.8,2.,4.8,0.,4.8,0.,4.8
1979-07-27 00:22:47.200 ,0,1,0.,4.8,4.,4.8,1.,4.8,0.,4.8
1979-07-27 00:22:51.990 ,0,1,0.,4.8,14.,4.8,2.,4.8,0.,4.8
1979-07-27 00:22:56.800 ,0,1,0.,4.8,12.,4.8,3.,4.8,0.,4.8
1979-07-27 00:23:01.600 ,0,1,0.,4.8,22.,4.8,4.,4.8,0.,4.8
1979-07-27 00:23:06.400 ,0,1,0.,4.8,23.,4.8,1.,4.8,2.,4.8
1979-07-27 00:23:11.200 ,4,1,0.,4.8,18.,4.8,1.,4.8,0.,4.8
1979-07-27 00:23:15.990 ,4,1,0.,4.8,15.,4.8,4.,4.8,0.,4.8
1979-07-27 00:23:20.800 ,4,1,0.,4.8,7.,4.8,2.,4.8,0.,4.8
1979-07-27 00:23:25.600 ,4,1,0.,4.8,9.,4.8,0.,4.8,0.,4.8
1979-07-27 00:23:30.400 ,4,1,0.,4.8,4.,4.8,0.,4.8,0.,4.8
1979-07-27 00:23:35.200 ,7,1,0.,4.8,6.,4.8,2.,4.8,0.,4.8
1979-07-27 00:23:39.990 ,7,1,0.,4.8,2.,4.8,4.,4.8,0.,4.8
1979-07-27 00:23:44.800 ,7,1,0.,4.8,6.,4.8,1.,4.8,1.,4.8
1979-07-27 00:23:49.600 ,7,1,0.,4.8,1.,4.8,0.,4.8,0.,4.8
1979-07-27 00:23:54.400 ,7,1,0.,4.8,4.,4.8,0.,4.8,0.,4.8
1979-07-27 00:23:59.200 ,3,1,0.,4.8,2.,4.8,1.,4.8,0.,4.8
1979-07-27 00:24:03.990 ,3,1,0.,4.8,6.,4.8,0.,4.8,0.,4.8
1979-07-27 00:24:08.800 ,3,1,0.,4.8,9.,4.8,0.,4.8,0.,4.8
1979-07-27 00:24:13.600 ,3,1,0.,4.8,4.,4.8,1.,4.8,0.,4.8
1979-07-27 00:24:18.400 ,3,1,0.,4.8,7.,4.8,0.,4.8,0.,4.8
1979-07-27 00:24:23.200 ,0,1,0.,4.8,3.,4.8,1.,4.8,0.,4.8
1979-07-27 00:24:27.990 ,0,1,0.,4.8,10.,4.8,1.,4.8,0.,4.8
1979-07-27 00:24:32.800 ,0,1,0.,4.8,11.,4.8,2.,4.8,3.,4.8
1979-07-27 00:24:37.600 ,0,1,0.,4.8,19.,4.8,3.,4.8,0.,4.8
1979-07-27 00:24:42.400 ,0,1,0.,4.8,19.,4.8,3.,4.8,0.,4.8
1979-07-27 00:24:47.200 ,4,1,0.,4.8,21.,4.8,3.,4.8,0.,4.8
1979-07-27 00:24:51.990 ,4,1,0.,4.8,15.,4.8,1.,4.8,1.,4.8
1979-07-27 00:24:56.800 ,4,1,0.,4.8,8.,4.8,0.,4.8,0.,4.8
1979-07-27 00:25:01.600 ,4,1,0.,4.8,11.,4.8,0.,4.8,1.,4.8
1979-07-27 00:25:06.400 ,4,1,0.,4.8,5.,4.8,0.,4.8,0.,4.8
1979-07-27 00:25:11.200 ,7,1,0.,4.8,3.,4.8,0.,4.8,1.,4.8
1979-07-27 00:25:15.990 ,7,1,0.,4.8,11.,4.8,0.,4.8,0.,4.8
1979-07-27 00:25:20.800 ,7,1,0.,4.8,9.,4.8,2.,4.8,1.,4.8
1979-07-27 00:25:25.600 ,7,1,0.,4.8,3.,4.8,1.,4.8,1.,4.8
1979-07-27 00:25:30.400 ,7,1,0.,4.8,1.,4.8,0.,4.8,0.,4.8
1979-07-27 00:25:35.200 ,3,1,0.,4.8,4.,4.8,0.,4.8,1.,4.8
1979-07-27 00:25:39.990 ,3,1,0.,4.8,5.,4.8,1.,4.8,0.,4.8
1979-07-27 00:25:44.800 ,3,1,0.,4.8,8.,4.8,0.,4.8,0.,4.8
1979-07-27 00:25:49.600 ,3,1,0.,4.8,6.,4.8,0.,4.8,0.,4.8
1979-07-27 00:25:54.400 ,3,1,0.,4.8,3.,4.8,2.,4.8,0.,4.8
1979-07-27 00:25:59.200 ,0,1,0.,4.8,1.,4.8,2.,4.8,0.,4.8
1979-07-27 00:26:03.990 ,0,1,0.,4.8,6.,4.8,1.,4.8,0.,4.8
1979-07-27 00:26:08.800 ,0,1,0.,4.8,12.,4.8,3.,4.8,2.,4.8
1979-07-27 00:26:13.600 ,0,1,0.,4.8,13.,4.8,0.,4.8,0.,4.8
1979-07-27 00:26:18.400 ,0,1,0.,4.8,22.,4.8,3.,4.8,0.,4.8
1979-07-27 00:26:23.200 ,4,1,0.,4.8,13.,4.8,3.,4.8,1.,4.8
1979-07-27 00:26:27.990 ,4,1,0.,4.8,8.,4.8,1.,4.8,0.,4.8
1979-07-27 00:26:32.800 ,4,1,0.,4.8,9.,4.8,4.,4.8,0.,4.8
1979-07-27 00:26:37.600 ,4,1,0.,4.8,7.,4.8,0.,4.8,0.,4.8
1979-07-27 00:26:42.400 ,4,1,0.,4.8,5.,4.8,1.,4.8,0.,4.8
1979-07-27 00:26:47.200 ,7,1,0.,4.8,3.,4.8,1.,4.8,1.,4.8
1979-07-27 00:26:51.990 ,7,1,0.,4.8,6.,4.8,0.,4.8,0.,4.8
1979-07-27 00:26:56.800 ,7,1,0.,4.8,6.,4.8,0.,4.8,0.,4.8
1979-07-27 00:27:01.600 ,7,1,0.,4.8,5.,4.8,0.,4.8,0.,4.8
1979-07-27 00:27:06.400 ,7,1,0.,4.8,0.,4.8,0.,4.8,1.,4.8
1979-07-27 00:27:11.190 ,3,1,0.,4.8,5.,4.8,1.,4.8,0.,4.8
1979-07-27 00:27:15.990 ,3,1,0.,4.8,10.,4.8,0.,4.8,1.,4.8
1979-07-27 00:27:20.790 ,3,1,0.,4.8,4.,4.8,0.,4.8,1.,4.8
1979-07-27 00:27:25.590 ,3,1,0.,4.8,8.,4.8,1.,4.8,2.,4.8
1979-07-27 00:27:30.390 ,3,1,0.,4.8,6.,4.8,1.,4.8,1.,4.8
1979-07-27 00:27:35.190 ,0,1,0.,4.8,5.,4.8,1.,4.8,0.,4.8
1979-07-27 00:27:39.990 ,0,1,0.,4.8,6.,4.8,0.,4.8,1.,4.8
1979-07-27 00:27:44.790 ,0,1,0.,4.8,17.,4.8,2.,4.8,1.,4.8
1979-07-27 00:27:49.590 ,0,1,0.,4.8,17.,4.8,1.,4.8,1.,4.8
1979-07-27 00:27:54.390 ,0,1,0.,4.8,16.,4.8,0.,4.8,1.,4.8
1979-07-27 00:27:59.190 ,4,1,0.,4.8,20.,4.8,4.,4.8,1.,4.8
1979-07-27 00:28:03.990 ,4,1,0.,4.8,9.,4.8,5.,4.8,0.,4.8
1979-07-27 00:28:08.790 ,4,1,0.,4.8,12.,4.8,3.,4.8,0.,4.8
1979-07-27 00:28:13.590 ,4,1,0.,4.8,3.,4.8,2.,4.8,1.,4.8
1979-07-27 00:28:18.390 ,4,1,0.,4.8,5.,4.8,0.,4.8,1.,4.8
1979-07-27 00:28:23.190 ,7,1,0.,4.8,7.,4.8,1.,4.8,0.,4.8
1979-07-27 00:28:27.990 ,7,1,0.,4.8,4.,4.8,0.,4.8,0.,4.8
1979-07-27 00:28:32.790 ,7,1,0.,4.8,5.,4.8,0.,4.8,0.,4.8
1979-07-27 00:28:37.590 ,7,1,0.,4.8,0.,4.8,1.,4.8,0.,4.8
1979-07-27 00:28:42.390 ,7,1,0.,4.8,0.,4.8,0.,4.8,0.,4.8
1979-07-27 00:28:47.190 ,3,1,0.,4.8,4.,4.8,0.,4.8,0.,4.8
1979-07-27 00:28:51.990 ,3,1,0.,4.8,7.,4.8,0.,4.8,0.,4.8
1979-07-27 00:28:56.790 ,3,1,0.,4.8,2.,4.8,0.,4.8,1.,4.8
1979-07-27 00:29:01.590 ,3,1,0.,4.8,5.,4.8,1.,4.8,0.,4.8
1979-07-27 00:29:06.390 ,3,1,0.,4.8,4.,4.8,1.,4.8,0.,4.8
1979-07-27 00:29:11.190 ,0,1,0.,4.8,2.,4.8,0.,4.8,0.,4.8
1979-07-27 00:29:15.990 ,0,1,0.,4.8,6.,4.8,0.,4.8,2.,4.8
1979-07-27 00:29:20.790 ,0,1,0.,4.8,13.,4.8,1.,4.8,0.,4.8
1979-07-27 00:29:25.590 ,0,1,0.,4.8,26.,4.8,3.,4.8,0.,4.8
1979-07-27 00:29:30.390 ,0,1,0.,4.8,14.,4.8,2.,4.8,1.,4.8
1979-07-27 00:29:35.190 ,0,0,0.,4.8,19.,4.8,2.,4.8,1.,4.8
1979-07-27 00:29:39.990 ,0,0,0.,4.8,11.,4.8,3.,4.8,1.,4.8
1979-07-27 00:29:44.790 ,0,0,0.,4.8,16.,4.8,0.,4.8,0.,4.8
1979-07-27 00:29:49.590 ,0,0,0.,4.8,1.,4.8,0.,4.8,1.,4.8
1979-07-27 00:29:54.390 ,0,0,0.,4.8,9.,4.8,1.,4.8,0.,4.8
1979-07-27 00:29:59.190 ,0,0,0.,4.8,2.,4.8,1.,4.8,1.,4.8
1979-07-27 00:30:03.990 ,0,0,0.,4.8,1.,4.8,0.,4.8,0.,4.8
1979-07-27 00:30:08.790 ,0,0,0.,4.8,7.,4.8,0.,4.8,0.,4.8
1979-07-27 00:30:13.590 ,0,0,0.,4.8,2.,4.8,1.,4.8,1.,4.8
1979-07-27 00:30:18.390 ,0,0,0.,4.8,0.,4.8,0.,4.8,0.,4.8
1979-07-27 00:30:23.190 ,5,0,0.,4.8,1.,4.8,1.,4.8,0.,4.8
1979-07-27 00:30:27.990 ,5,0,0.,4.8,7.,4.8,0.,4.8,0.,4.8
1979-07-27 00:30:32.790 ,5,0,0.,4.8,5.,4.8,0.,4.8,0.,4.8
1979-07-27 00:30:37.590 ,5,0,0.,4.8,5.,4.8,0.,4.8,0.,4.8
1979-07-27 00:30:42.390 ,5,0,0.,4.8,7.,4.8,0.,4.8,0.,4.8
1979-07-27 00:30:47.190 ,5,0,0.,4.8,6.,4.8,0.,4.8,0.,4.8
1979-07-27 00:30:51.990 ,5,0,1.,4.8,3.,4.8,0.,4.8,0.,4.8
1979-07-27 00:30:56.790 ,5,0,0.,4.8,4.,4.8,3.,4.8,0.,4.8
1979-07-27 00:31:01.590 ,5,0,0.,4.8,2.,4.8,0.,4.8,0.,4.8
1979-07-27 00:31:06.390 ,5,0,0.,4.8,5.,4.8,0.,4.8,0.,4.8
1979-07-27 00:31:11.190 ,4,0,0.,4.8,7.,4.8,2.,4.8,0.,4.8
1979-07-27 00:31:15.990 ,4,0,0.,4.8,1.,4.8,0.,4.8,1.,4.8
1979-07-27 00:31:20.790 ,4,0,0.,4.8,5.,4.8,0.,4.8,1.,4.8
1979-07-27 00:31:25.590 ,4,0,0.,4.8,6.,4.8,0.,4.8,0.,4.8
1979-07-27 00:31:30.390 ,4,0,0.,4.8,8.,4.8,2.,4.8,0.,4.8
1979-07-27 00:31:35.190 ,4,0,0.,4.8,4.,4.8,0.,4.8,1.,4.8
1979-07-27 00:31:39.990 ,4,0,0.,4.8,8.,4.8,1.,4.8,0.,4.8
1979-07-27 00:31:44.790 ,4,0,0.,4.8,4.,4.8,0.,4.8,0.,4.8
1979-07-27 00:31:49.590 ,4,0,0.,4.8,5.,4.8,2.,4.8,1.,4.8
1979-07-27 00:31:54.390 ,4,0,0.,4.8,8.,4.8,1.,4.8,0.,4.8
1979-07-27 00:31:59.190 ,3,0,0.,4.8,6.,4.8,1.,4.8,1.,4.8
1979-07-27 00:32:03.990 ,3,0,0.,4.8,2.,4.8,2.,4.8,0.,4.8
1979-07-27 00:32:08.790 ,3,0,0.,4.8,5.,4.8,2.,4.8,0.,4.8
1979-07-27 00:32:13.590 ,3,0,0.,4.8,3.,4.8,0.,4.8,0.,4.8
1979-07-27 00:32:18.390 ,3,0,0.,4.8,5.,4.8,1.,4.8,1.,4.8
1979-07-27 00:32:23.190 ,3,0,0.,4.8,5.,4.8,0.,4.8,0.,4.8
1979-07-27 00:32:27.990 ,3,0,0.,4.8,2.,4.8,1.,4.8,0.,4.8
1979-07-27 00:32:32.790 ,3,0,0.,4.8,4.,4.8,0.,4.8,1.,4.8
1979-07-27 00:32:37.590 ,3,0,0.,4.8,6.,4.8,1.,4.8,0.,4.8
1979-07-27 00:32:42.390 ,3,0,0.,4.8,5.,4.8,0.,4.8,0.,4.8
1979-07-27 00:32:47.190 ,2,0,0.,4.8,2.,4.8,2.,4.8,0.,4.8
1979-07-27 00:32:51.990 ,2,0,0.,4.8,5.,4.8,1.,4.8,0.,4.8
1979-07-27 00:32:56.790 ,2,0,0.,4.8,4.,4.8,1.,4.8,0.,4.8
1979-07-27 00:33:01.590 ,2,0,0.,4.8,9.,4.8,1.,4.8,0.,4.8
1979-07-27 00:33:06.390 ,2,0,0.,4.8,8.,4.8,0.,4.8,0.,4.8